"America/Chicago Time","Lifetime Energy (kWh)","Power (W)","AC Volts RMS (V) ","AC Amps RMS (mA)","Grid Frequency (Hz)","Inverter Temperature (C)"
"08/06/12 09:54:35","173.2515","137.0","216.01","638","60.0","33"
"08/06/12 09:59:35","173.2623","139.0","215.78","645","60.03","34"
"08/06/12 10:09:35","173.2843","144.0","215.87","669","60.03","35"
"08/06/12 10:14:34","173.2956","147.1","216.0","686","60.0","34"
"08/06/12 10:19:36","173.3071","147.9","215.79","685","60.03","35"
"08/06/12 10:24:36","173.3188","150.4","215.9","698","59.96","36"
"08/06/12 10:29:35","173.3307","153.4","215.64","711","60.0","36"
"08/06/12 10:34:36","173.3427","155.5","216.0","720","60.0","36"
"08/06/12 10:39:36","173.3549","158.2","216.82","727","60.0","36"
"08/06/12 10:44:35","173.3673","160.0","216.19","742","60.03","36"
"08/06/12 10:49:35","173.3798","160.4","216.09","741","60.03","37"
"08/06/12 10:54:34","173.3924","162.6","216.16","750","60.03","37"
"08/06/12 10:59:34","173.4052","165.1","217.53","756","60.03","37"
"08/06/12 11:04:35","173.4181","165.4","217.46","751","60.0","38"
"08/06/12 11:09:35","173.4311","168.0","217.72","765","60.0","38"
"08/06/12 11:14:36","173.4442","168.4","216.95","768","60.0","38"
"08/06/12 11:19:35","173.4574","170.0","217.08","777","60.0","38"
"08/06/12 11:24:36","173.4707","171.4","217.88","779","60.03","38"
"08/06/12 11:29:36","173.484","170.4","217.28","773","60.03","38"
"08/06/12 11:34:35","173.4974","173.2","217.46","786","60.0","38"
"08/06/12 11:39:34","173.5109","174.5","215.75","798","60.03","38"
"08/06/12 11:44:35","173.5246","174.7","215.91","801","60.0","39"
"08/06/12 11:49:35","173.5383","176.2","216.39","805","60.0","38"
"08/06/12 11:54:35","173.5521","176.3","217.28","801","60.0","38"
"08/06/12 11:59:34","173.5656","177.8","215.54","818","60.03","39"
"08/06/12 12:04:35","173.5795","178.8","216.38","818","60.03","39"
"08/06/12 12:09:35","173.5935","180.8","216.11","825","60.0","40"
"08/06/12 12:14:35","173.6072","173.8","216.27","796","60.03","40"
"08/06/12 12:19:36","173.6207","173.8","216.75","794","60.0","40"
"08/06/12 12:24:34","173.6344","180.7","217.37","821","60.03","40"
"08/06/12 12:29:34","173.6484","180.0","215.17","823","60.0","40"
"08/06/12 12:34:36","173.6626","183.3","215.89","838","60.03","40"
"08/06/12 12:39:34","173.6768","181.7","216.44","829","60.0","40"
"08/06/12 12:44:35","173.6902","129.1","215.26","605","60.0","38"
"08/06/12 12:49:36","173.7006","26.2","213.2","196","60.03","38"
"08/06/12 12:54:35","173.7135","184.1","217.64","838","60.03","39"
"08/06/12 12:59:34","173.7278","184.1","217.1","838","60.0","39"
"08/06/12 13:04:34","173.7421","186.8","216.94","851","60.03","39"
"08/06/12 13:09:35","173.7546","119.6","214.26","566","60.03","38"
"08/06/12 13:14:35","173.7679","186.2","216.85","844","60.07","38"
"08/06/12 13:19:35","173.7817","148.2","217.6","685","60.0","38"
"08/06/12 13:24:35","173.7948","178.7","217.61","815","60.0","38"
"08/06/12 13:29:35","173.8087","176.2","218.38","799","60.0","38"
"08/06/12 13:34:35","173.8213","140.0","216.73","646","60.03","38"
"08/06/12 13:39:34","173.8292","78.5","215.19","387","60.03","37"
"08/06/12 13:44:35","173.8398","190.9","217.46","868","60.0","37"
"08/06/12 13:49:36","173.8532","164.5","216.6","757","60.03","38"
"08/06/12 13:54:34","173.8651","162.8","216.55","747","60.03","38"
"08/06/12 13:59:35","173.8771","153.1","216.16","708","60.07","38"
"08/06/12 14:04:34","173.8882","150.4","217.34","688","60.03","38"
"08/06/12 14:09:36","173.9006","159.2","217.18","729","60.0","38"
"08/06/12 14:14:36","173.9128","145.5","216.75","668","60.03","39"
"08/06/12 14:19:35","173.9224","130.7","217.37","608","60.0","38"
"08/06/12 14:24:35","173.9322","140.5","217.81","650","60.03","38"
"08/06/12 14:29:36","173.9425","103.6","216.51","492","60.0","38"
"08/06/12 14:34:34","173.9535","112.6","216.18","532","60.0","38"
"08/06/12 14:39:35","173.9637","138.7","217.39","641","60.03","38"
"08/06/12 14:44:35","173.9738","111.2","217.12","525","60.03","38"
"08/06/12 14:49:35","173.986","167.3","217.65","760","60.0","39"
"08/06/12 14:54:36","173.9987","161.1","217.35","740","60.0","39"
"08/06/12 14:59:35","174.0104","128.9","216.65","602","60.0","39"
"08/06/12 15:04:35","174.0215","129.5","216.55","601","60.0","39"
"08/06/12 15:09:36","174.0302","73.9","214.8","370","60.0","38"
"08/06/12 15:14:35","174.0367","46.8","213.71","410","60.0","37"
"08/06/12 15:19:36","174.0407","54.9","213.91","357","60.0","36"
"08/06/12 15:24:37","174.045","45.3","214.2","339","60.0","35"
"08/06/12 15:29:35","174.0486","43.4","214.63","227","60.03","34"
"08/06/12 15:34:36","174.0511","30.1","213.85","21","60.03","33"
"08/06/12 15:39:34","174.0529","13.6","213.52","5","60.03","33"
"08/06/12 15:44:34","174.0543","19.0","214.65","116","60.03","32"
"08/06/12 15:49:35","174.0566","34.1","214.26","105","60.0","31"
"08/06/12 15:54:34","174.0588","21.6","213.45","271","60.03","31"
"08/06/12 15:59:35","174.0605","14.0","214.16","7","60.07","31"
"08/06/12 16:04:36","174.0618","11.9","214.65","23","60.03","30"
"08/06/12 16:09:35","174.0631","27.4","214.73","48","60.03","30"
"08/06/12 16:14:34","174.0646","14.0","215.08","131","60.0","30"
"08/06/12 16:19:35","174.0655","0.0","214.41","253","60.0","30"
"08/06/12 16:24:36","174.0662","13.2","213.54","8","60.03","29"
"08/06/12 16:29:36","174.0676","20.1","214.97","20","60.03","29"
"08/06/12 16:34:35","174.0696","30.9","214.47","165","60.03","29"
"08/06/12 16:39:35","174.0726","39.2","214.65","341","60.0","29"
"08/06/12 16:44:35","174.0756","34.5","214.45","149","60.0","30"
"08/06/12 16:49:35","174.0779","31.4","213.95","90","60.0","30"
"08/06/12 16:54:34","174.0797","17.4","213.59","31","60.03","30"
"08/06/12 16:59:36","174.0808","14.2","214.42","81","60.03","30"
"08/06/12 17:04:35","174.0816","11.9","214.47","177","60.03","29"
"08/06/12 17:09:36","174.0823","0.0","215.09","0","60.03","29"
"08/06/12 17:14:36","174.0826","0.0","214.36","0","60.0","29"
"08/06/12 17:19:36","174.083","10.4","214.77","5","60.03","29"
"08/06/12 17:24:35","174.0837","13.9","214.06","16","60.03","29"
"08/06/12 17:29:36","174.0844","10.8","214.04","76","60.03","28"
"08/06/12 17:34:35","174.0848","0.0","213.14","0","60.03","28"
"08/06/12 17:39:36","174.0856","25.5","213.98","98","60.03","28"
"08/06/12 17:44:36","174.0877","36.8","214.47","290","60.03","28"
"08/06/12 17:49:36","174.0901","32.1","214.7","212","60.03","29"
"08/06/12 17:54:35","174.0929","36.6","214.81","239","60.0","29"
"08/06/12 17:59:35","174.0961","25.5","214.24","22","60.03","30"
"08/06/12 18:04:35","174.0978","20.6","214.69","20","60.07","30"
"08/06/12 18:09:36","174.0995","20.8","215.01","188","60.0","30"
"08/06/12 18:14:36","174.1023","42.0","215.07","280","60.03","30"
"08/06/12 18:19:35","174.1042","17.1","214.2","253","60.03","31"
"08/06/12 18:24:35","174.1056","19.8","214.52","225","60.0","31"
"08/06/12 18:29:36","174.1068","20.1","214.19","41","60.03","31"
"08/06/12 18:34:36","174.1081","13.7","214.46","11","60.07","31"
"08/06/12 18:39:36","174.109","14.1","214.48","1","60.0","30"
"08/07/12 06:44:41","174.1095","13.8","214.77","6","60.03","19"
"08/07/12 06:49:40","174.1098","0.0","214.21","8","60.07","19"
"08/07/12 06:54:40","174.1102","0.0","214.06","0","60.03","20"
"08/07/12 06:59:38","174.1107","0.0","212.89","0","60.0","20"
"08/07/12 07:04:40","174.1115","6.2","213.97","183","60.03","20"
"08/07/12 07:09:38","174.1124","17.7","215.09","211","60.03","20"
"08/07/12 07:14:38","174.1135","12.3","215.26","261","60.03","21"
"08/07/12 07:19:38","174.1148","13.1","215.22","25","60.07","22"
"08/07/12 07:24:39","174.1165","25.9","214.9","29","60.03","22"
"08/07/12 07:29:39","174.1185","28.9","215.02","226","60.0","22"
"08/07/12 07:34:39","174.1208","34.7","215.25","234","60.03","23"
"08/07/12 07:39:40","174.1233","39.1","214.57","127","60.03","23"
"08/07/12 07:44:38","174.1262","35.1","214.67","128","60.03","24"
"08/07/12 07:49:40","174.1294","37.8","214.33","114","60.03","24"
"08/07/12 07:54:38","174.133","47.7","215.05","203","60.03","25"
"08/07/12 07:59:39","174.1368","39.5","215.14","367","60.03","25"
"08/07/12 08:04:39","174.1407","45.8","215.21","373","60.0","26"
"08/07/12 08:09:39","174.1445","53.9","215.43","179","60.0","26"
"08/07/12 08:14:39","174.1484","39.4","214.41","327","60.0","26"
"08/07/12 08:19:40","174.1538","70.6","215.77","352","60.0","27"
"08/07/12 08:24:39","174.1594","74.8","216.32","371","60.03","27"
"08/07/12 08:29:39","174.1654","79.8","216.29","393","60.0","27"
"08/07/12 08:34:38","174.1715","80.2","216.58","393","60.03","28"
"08/07/12 08:39:39","174.1781","87.6","216.98","422","60.03","28"
"08/07/12 08:44:40","174.1851","91.5","216.43","442","60.0","28"
"08/07/12 08:49:40","174.1924","95.5","217.08","457","60.03","28"
"08/07/12 08:54:39","174.1999","99.6","217.3","474","60.07","29"
"08/07/12 08:59:38","174.2078","103.1","216.15","488","60.0","29"
"08/07/12 09:04:38","174.216","106.3","214.79","512","60.0","30"
"08/07/12 09:09:40","174.2245","110.9","215.79","527","60.0","30"
"08/07/12 09:14:39","174.2333","114.2","216.76","538","60.03","31"
"08/07/12 09:19:40","174.2422","117.2","216.9","554","60.0","31"
"08/07/12 09:24:38","174.2514","120.6","217.24","564","60.03","31"
"08/07/12 09:29:39","174.2609","123.6","216.51","576","60.0","32"
"08/07/12 09:34:38","174.2706","127.0","216.89","587","60.03","32"
"08/07/12 09:39:39","174.2807","130.7","217.13","605","60.03","32"
"08/07/12 09:44:39","174.291","133.8","217.07","622","60.03","32"
"08/07/12 09:49:39","174.3014","136.0","217.94","631","60.03","32"
"08/07/12 09:54:39","174.3122","138.5","218.33","643","60.03","33"
"08/07/12 09:59:40","174.3231","141.7","217.84","654","60.03","33"
"08/07/12 10:04:39","174.3342","144.3","217.59","665","60.03","33"
"08/07/12 10:09:39","174.3454","147.2","218.02","674","60.0","34"
"08/07/12 10:14:38","174.357","149.1","218.59","684","60.0","34"
"08/07/12 10:19:38","174.3687","151.0","217.83","692","60.0","34"
"08/07/12 10:24:39","174.3807","154.1","218.29","701","60.03","34"
"08/07/12 10:29:40","174.3928","156.2","216.49","717","60.0","35"
"08/07/12 10:34:38","174.4049","157.4","216.34","725","60.0","35"
"08/07/12 10:39:38","174.4172","158.3","217.27","728","60.0","36"
"08/07/12 10:44:38","174.4297","161.6","216.94","741","60.0","36"
"08/07/12 10:49:39","174.4424","163.0","217.35","747","60.0","36"
"08/07/12 10:54:39","174.4553","165.6","217.97","759","60.0","36"
"08/07/12 10:59:39","174.4682","166.7","218.38","763","60.03","36"
"08/07/12 11:04:40","174.4814","170.9","218.03","778","60.0","36"
"08/07/12 11:09:40","174.4946","170.9","221.79","766","60.0","37"
"08/07/12 11:14:40","174.5081","173.0","218.35","786","60.0","36"
"08/07/12 11:19:38","174.5215","174.0","218.99","786","60.0","37"
"08/07/12 11:24:39","174.5352","175.9","215.24","807","60.03","36"
"08/07/12 11:29:39","174.549","176.6","216.63","804","60.03","36"
"08/07/12 11:34:40","174.5628","177.6","216.96","810","60.03","37"
"08/07/12 11:39:38","174.5766","176.8","218.64","802","60.0","37"
"08/07/12 11:44:39","174.5904","177.2","218.35","805","60.03","37"
"08/07/12 11:54:38","174.6182","180.5","218.63","820","60.03","38"
"08/07/12 11:59:39","174.6323","180.5","219.46","813","60.03","38"
"08/07/12 12:04:39","174.6464","181.3","218.52","821","60.0","38"
"08/07/12 12:09:40","174.6604","180.6","218.4","817","60.0","38"
"08/07/12 12:14:40","174.6745","181.1","218.78","819","60.03","39"
"08/07/12 12:19:38","174.6886","183.1","218.61","826","60.0","39"
"08/07/12 12:24:39","174.703","183.5","218.3","833","60.03","39"
"08/07/12 12:29:39","174.7174","185.4","217.99","841","60.03","38"
"08/07/12 12:34:39","174.7319","185.2","218.2","838","60.0","38"
"08/07/12 12:39:38","174.7462","186.2","218.13","844","60.0","38"
"08/07/12 12:44:38","174.7607","184.1","217.52","837","60.0","38"
"08/07/12 12:49:39","174.7751","183.3","218.31","829","60.0","38"
"08/07/12 12:54:39","174.7894","182.8","218.22","831","60.0","38"
"08/07/12 12:59:39","174.8036","182.8","219.42","818","60.03","38"
"08/07/12 13:04:39","174.8178","181.4","219.18","817","60.0","38"
"08/07/12 13:09:39","174.8321","182.2","218.58","824","60.03","38"
"08/07/12 13:14:40","174.8463","182.0","218.75","822","60.0","38"
"08/07/12 13:19:39","174.8604","181.0","218.7","816","60.03","38"
"08/07/12 13:24:40","174.8746","180.4","218.46","815","60.0","38"
"08/07/12 13:29:39","174.8885","178.4","218.56","808","60.03","39"
"08/07/12 13:34:40","174.9025","178.6","219.23","806","60.0","39"
"08/07/12 13:39:38","174.9162","176.4","219.35","795","60.03","39"
"08/07/12 13:44:40","174.93","175.8","218.77","790","60.0","39"
"08/07/12 13:49:39","174.9436","174.4","219.01","788","60.0","39"
"08/07/12 13:54:39","174.9572","173.5","218.97","786","60.03","39"
"08/07/12 13:59:38","174.9706","172.4","218.59","777","60.03","39"
"08/07/12 14:04:38","174.9841","173.5","218.4","787","60.0","38"
"08/07/12 14:09:40","174.9976","170.3","218.16","777","60.0","38"
"08/07/12 14:14:39","175.0108","168.1","217.64","762","60.0","38"
"08/07/12 14:19:39","175.0239","169.0","217.03","777","60.03","38"
"08/07/12 14:24:40","175.037","165.2","217.51","753","60.03","38"
"08/07/12 14:29:39","175.0497","164.0","217.82","748","60.0","38"
"08/07/12 14:34:39","175.0625","163.0","218.08","742","60.03","38"
"08/07/12 14:39:39","175.075","161.1","217.57","733","60.03","37"
"08/07/12 14:44:39","175.0875","158.2","218.08","719","60.03","38"
"08/07/12 14:49:39","175.0997","155.7","217.98","714","60.0","38"
"08/07/12 14:54:40","175.1118","153.7","216.81","704","60.0","38"
"08/07/12 14:59:40","175.1238","153.7","217.27","707","60.03","37"
"08/07/12 15:04:40","175.1357","151.6","216.98","699","60.03","36"
"08/07/12 15:09:39","175.1474","149.1","216.58","688","60.0","36"
"08/07/12 15:14:40","175.1589","145.0","216.59","671","60.03","36"
"08/07/12 15:19:39","175.17","144.3","217.01","666","60.03","36"
"08/07/12 15:24:38","175.1812","142.7","217.4","656","60.03","35"
"08/07/12 15:29:40","175.1923","139.9","217.28","649","60.03","34"
"08/07/12 15:34:38","175.203","137.7","217.43","636","60.03","34"
"08/07/12 15:39:38","175.2135","134.0","217.27","620","60.03","33"
"08/07/12 15:44:39","175.2239","129.5","216.97","602","60.0","33"
"08/07/12 15:49:38","175.2337","125.7","216.26","587","60.03","34"
"08/07/12 15:54:40","175.2435","123.2","216.44","576","60.03","34"
"08/07/12 15:59:40","175.2529","120.6","216.97","562","60.03","34"
"08/07/12 16:04:39","175.2622","118.0","216.7","556","60.03","34"
"08/07/12 16:09:40","175.2713","115.0","216.62","542","60.0","34"
"08/07/12 16:14:39","175.2801","110.8","217.06","524","60.0","34"
"08/07/12 16:19:40","175.2886","107.9","216.43","509","60.0","34"
"08/07/12 16:24:39","175.2969","104.2","215.94","497","60.03","33"
"08/07/12 16:29:40","175.3048","101.2","215.81","488","60.03","33"
"08/07/12 16:34:39","175.3126","97.8","215.55","473","60.03","32"
"08/07/12 16:39:38","175.3201","94.8","214.92","460","60.0","32"
"08/07/12 16:44:38","175.3274","90.7","214.97","442","60.03","32"
"08/07/12 16:49:38","175.3342","86.6","215.63","423","60.03","32"
"08/07/12 16:54:38","175.3409","82.8","216.08","405","60.03","31"
"08/07/12 16:59:39","175.3471","78.2","215.78","386","60.03","31"
"08/07/12 17:04:39","175.3531","73.7","215.78","370","60.03","31"
"08/07/12 17:09:39","175.3586","69.7","215.98","351","60.03","31"
"08/07/12 17:14:40","175.3639","65.6","215.98","333","60.03","30"
"08/07/12 17:19:39","175.3688","61.9","216.05","316","60.03","30"
"08/07/12 17:24:39","175.373","53.3","214.65","304","60.0","30"
"08/07/12 17:29:40","175.3769","54.4","215.3","132","60.0","30"
"08/07/12 17:34:39","175.3809","50.9","215.31","216","60.0","29"
"08/07/12 17:39:39","175.3845","38.5","214.97","103","60.03","29"
"08/07/12 17:44:39","175.3878","44.4","215.27","253","60.03","29"
"08/07/12 17:49:38","175.3908","40.3","215.07","78","60.07","29"
"08/07/12 17:54:39","175.3935","36.5","214.68","129","60.0","28"
"08/07/12 17:59:39","175.3958","29.2","214.39","264","60.0","28"
"08/07/12 18:04:38","175.3979","33.9","214.46","75","60.03","28"
"08/07/12 18:09:39","175.3997","23.0","214.92","14","60.03","28"
"08/07/12 18:14:38","175.4012","13.5","214.61","30","60.0","28"
"08/07/12 18:19:39","175.4025","15.1","214.3","57","60.03","28"
"08/07/12 18:24:39","175.4036","10.5","214.87","0","60.07","27"
"08/07/12 18:29:39","175.4044","14.0","214.21","0","60.03","27"
"08/07/12 18:34:40","175.4051","14.4","214.48","0","60.0","27"
"08/07/12 18:39:39","175.4056","14.0","215.09","1","60.03","27"
"08/07/12 18:44:39","175.4061","7.4","214.79","183","60.03","27"
"08/07/12 18:49:40","175.4066","0.0","214.0","0","60.03","27"
"08/07/12 18:54:39","175.4071","11.8","214.22","2","60.07","26"
"08/07/12 18:59:40","175.4076","0.0","213.79","75","60.03","26"
"08/07/12 19:04:39","175.4084","2.6","213.22","230","60.0","26"
"08/07/12 19:09:42","175.4091","10.6","213.68","0","60.0","26"
"08/07/12 19:14:38","175.4098","0.0","213.29","0","60.0","26"
"08/07/12 19:19:39","175.4101","0.0","214.03","0","60.0","26"
"08/07/12 19:24:39","175.4105","14.9","213.56","4","60.03","26"
"08/08/12 06:29:50","175.4106","0.0","214.02","0","60.03","15"
"08/08/12 06:34:47","175.4108","0.0","213.87","22","60.0","17"
"08/08/12 06:39:43","175.411","0.0","213.9","0","60.03","17"
"08/08/12 06:44:44","175.4112","0.0","213.58","0","60.03","18"
"08/08/12 06:49:45","175.4116","5.2","213.82","228","60.03","18"
"08/08/12 06:54:43","175.412","0.0","213.37","133","60.03","18"
"08/08/12 06:59:43","175.4126","11.9","214.3","4","60.0","18"
"08/08/12 07:04:43","175.4132","7.9","214.25","0","60.03","18"
"08/08/12 07:09:43","175.4139","12.1","215.02","24","60.07","18"
"08/08/12 07:14:43","175.4147","10.5","215.25","3","60.0","19"
"08/08/12 07:19:44","175.4156","8.0","215.74","237","60.03","19"
"08/08/12 07:24:42","175.4164","12.2","214.09","17","60.03","19"
"08/08/12 07:29:43","175.4178","26.6","214.28","152","60.03","20"
"08/08/12 07:34:43","175.4205","45.0","214.59","129","60.0","20"
"08/08/12 07:39:43","175.4238","37.1","213.9","169","60.03","20"
"08/08/12 07:44:43","175.4268","44.5","213.91","344","60.03","22"
"08/08/12 07:49:43","175.4294","25.7","213.01","213","60.03","22"
"08/08/12 07:54:43","175.4316","27.7","213.38","241","60.07","22"
"08/08/12 07:59:43","175.4336","12.6","213.83","247","60.03","22"
"08/08/12 08:04:44","175.435","15.4","213.58","23","60.0","23"
"08/08/12 08:09:44","175.4361","2.8","213.57","94","60.03","22"
"08/08/12 08:14:42","175.4369","15.1","212.99","4","60.0","22"
"08/08/12 08:19:43","175.4379","14.8","213.61","5","60.0","22"
"08/08/12 08:24:43","175.4392","30.3","213.72","25","60.0","23"
"08/08/12 08:29:43","175.4407","32.1","212.83","188","60.07","23"
"08/08/12 08:34:43","175.4433","44.5","213.67","334","60.0","23"
"08/08/12 08:39:43","175.4457","24.8","213.73","60","60.0","23"
"08/08/12 08:44:43","175.4477","16.1","213.04","5","60.0","23"
"08/08/12 08:49:42","175.4488","14.9","214.16","8","60.03","24"
"08/08/12 08:54:42","175.45","14.4","213.82","4","60.03","24"
"08/08/12 08:59:43","175.4507","0.0","213.92","0","60.03","24"
"08/08/12 09:04:43","175.4511","13.1","214.13","68","60.03","23"
"08/08/12 09:09:42","175.4523","21.9","213.68","275","60.0","23"
"08/08/12 09:14:47","175.4538","20.0","213.77","25","60.0","24"
"08/08/12 09:19:42","175.456","29.2","214.04","241","60.0","24"
"08/08/12 09:24:42","175.4583","28.6","213.97","75","60.0","24"
"08/08/12 09:29:43","175.4609","27.4","214.23","95","60.03","24"
"08/08/12 09:34:43","175.4644","47.2","214.4","301","60.03","24"
"08/08/12 09:39:43","175.4689","156.8","216.75","722","60.0","25"
"08/08/12 09:44:44","175.4789","62.7","214.6","319","60.0","26"
"08/08/12 09:49:43","175.4837","43.0","214.08","331","60.0","27"
"08/08/12 09:54:42","175.4875","52.5","214.13","376","60.0","27"
"08/08/12 09:59:43","175.4912","48.1","214.12","357","60.03","28"
"08/08/12 10:04:42","175.4941","34.9","214.3","198","60.03","28"
"08/08/12 10:09:42","175.4994","98.7","214.62","478","60.03","28"
"08/08/12 10:14:42","175.5057","68.8","214.12","351","60.0","28"
"08/08/12 10:19:43","175.5111","72.0","214.0","360","60.0","29"
"08/08/12 10:24:43","175.5174","76.1","215.47","373","60.03","29"
"08/08/12 10:29:43","175.5241","90.9","215.32","444","60.0","29"
"08/08/12 10:34:42","175.5295","54.4","214.47","116","60.0","29"
"08/08/12 10:39:43","175.5325","42.2","214.47","182","60.0","29"
"08/08/12 10:44:44","175.5354","33.4","214.1","176","60.03","29"
"08/08/12 10:49:44","175.5376","25.4","213.73","202","60.03","28"
"08/08/12 10:54:42","175.5395","29.6","214.06","59","60.03","28"
"08/08/12 10:59:43","175.541","11.6","214.38","12","60.03","28"
"08/08/12 11:04:43","175.5423","23.1","215.26","220","60.0","27"
"08/08/12 11:09:42","175.5438","30.8","214.18","120","60.0","27"
"08/08/12 11:14:43","175.5458","31.9","214.37","198","60.03","26"
"08/08/12 11:19:43","175.5487","54.6","214.64","394","60.0","26"
"08/08/12 11:24:42","175.5531","58.5","215.02","424","60.03","26"
"08/08/12 11:29:43","175.5569","36.6","214.28","118","60.03","26"
"08/08/12 11:34:43","175.5603","51.5","214.06","173","59.96","26"
"08/08/12 11:39:43","175.5637","39.9","213.55","189","60.03","26"
"08/08/12 11:44:43","175.5666","35.6","213.37","152","60.03","26"
"08/08/12 11:49:44","175.569","37.1","214.32","257","60.03","26"
"08/08/12 11:54:42","175.5721","38.0","214.66","397","60.03","26"
"08/08/12 11:59:42","175.5757","40.8","214.7","300","60.03","26"
"08/08/12 12:04:42","175.5795","43.8","215.05","388","60.03","26"
"08/08/12 12:09:42","175.5834","55.1","214.64","387","60.03","26"
"08/08/12 12:14:43","175.5881","68.1","215.11","345","60.03","26"
"08/08/12 12:19:42","175.5943","88.1","216.25","429","60.0","27"
"08/08/12 12:24:43","175.6001","61.7","214.57","313","60.0","27"
"08/08/12 12:29:43","175.6049","66.7","215.06","339","60.03","27"
"08/08/12 12:34:43","175.611","82.3","214.91","403","60.07","28"
"08/08/12 12:39:42","175.6189","109.0","214.64","521","60.03","28"
"08/08/12 12:44:42","175.6264","91.7","214.59","448","60.03","29"
"08/08/12 12:49:42","175.6334","79.8","214.54","394","60.03","29"
"08/08/12 12:54:42","175.6393","83.4","215.15","408","60.0","29"
"08/08/12 12:59:43","175.6479","142.3","216.48","652","60.07","30"
"08/08/12 13:04:43","175.6599","154.6","217.06","711","60.03","31"
"08/08/12 13:09:43","175.671","101.5","215.83","484","60.03","32"
"08/08/12 13:14:42","175.6803","100.9","216.24","482","60.03","32"
"08/08/12 13:19:43","175.6865","71.8","214.83","361","60.03","32"
"08/08/12 13:24:44","175.6913","60.4","214.86","391","60.0","31"
"08/08/12 13:29:44","175.6953","40.7","215.03","136","60.03","31"
"08/08/12 13:34:43","175.6985","42.2","215.03","225","60.03","30"
"08/08/12 13:39:43","175.701","32.8","214.74","177","60.03","29"
"08/08/12 13:44:43","175.7031","26.0","215.15","52","60.0","29"
"08/08/12 13:49:44","175.7054","37.5","215.05","182","60.0","28"
"08/08/12 13:54:44","175.708","29.2","214.69","145","60.03","28"
"08/08/12 13:59:42","175.7105","29.8","214.25","160","60.0","27"
"08/08/12 14:04:43","175.7134","41.1","214.67","167","60.03","27"
"08/08/12 14:09:43","175.7168","36.6","214.75","295","60.0","27"
"08/08/12 14:14:42","175.72","44.5","214.86","276","60.03","27"
"08/08/12 14:19:43","175.7234","38.7","214.78","357","60.03","27"
"08/08/12 14:24:43","175.7268","50.0","215.35","239","60.03","26"
"08/08/12 14:29:43","175.7303","51.9","215.17","125","60.0","26"
"08/08/12 14:34:44","175.7339","50.6","215.09","318","60.0","26"
"08/08/12 14:39:42","175.7372","48.8","214.83","263","60.0","26"
"08/08/12 14:44:43","175.7405","37.3","214.82","178","60.03","26"
"08/08/12 14:49:42","175.744","51.3","214.8","386","60.03","26"
"08/08/12 14:54:42","175.7471","31.9","214.61","92","60.0","26"
"08/08/12 14:59:43","175.7501","33.7","213.51","86","60.03","26"
"08/08/12 15:04:43","175.7531","47.9","213.67","310","60.0","26"
"08/08/12 15:09:42","175.757","44.0","214.45","373","60.0","26"
"08/08/12 15:14:42","175.7611","39.3","214.19","240","60.0","26"
"08/08/12 15:19:43","175.7648","49.4","214.62","351","60.0","26"